[[{"header":{"parameterUnit":"m.s-1","parameterCategory":1,"la1":30.2991,"la2":30.254,"lo1":-89.0895,"lo2":-89.0444,"dy":0.0017,"dx":0.0017,"nx":28,"ny":28,"refTime":"2024-04-24T21:00:00:Z","depth":0,"parameterNumber":2,"parameterNumberName":"U-component_of_WINDS"},"data":[0,0,0,0,0,0,0,0,0,0,0,0,0,0,0,0,0,0,0,0,0,0,0,0,0,0,0,0,0,0,0,0,0,0,0,0,0,0,0,0,0,0,0,0,0,0,0,0,0,0,0,0,0,0,0,0,0,0,1.0113,1.0114,0,1.021,1.0211,1.0212,1.0242,1.0242,1.0241,1.0241,1.034,1.0343,1.0346,0,0,0,0,0,0,0,0,0,0,0,0,0,0.9952,0.9955,1.0113,1.0114,1.0115,1.0209,1.0211,1.0212,1.0242,1.0242,1.0241,1.0241,1.0339,1.0342,1.0346,0,0,0,0,0,0,0,0,0,0,0,0,0,1.0033,0.9956,1.0112,1.0141,1.0145,1.0209,1.0211,1.0212,1.0242,1.0242,1.0241,1.024,1.0337,1.0342,1.0346,1.0388,0,0,1.036,1.0362,0,0,0,0,0,0,0,0,1.0028,1.0039,1.0136,1.014,1.0144,1.0213,1.019,1.0271,1.0243,1.0205,1.0241,1.024,1.0298,1.0306,1.0325,1.0393,1.0397,1.0361,1.0364,1.0366,1.0367,0,0,0,0,0,0,0,1.0023,1.0035,1.0151,1.0137,1.0142,1.0149,1.016,1.0206,1.0254,1.0209,1.0211,1.0222,1.03,1.0321,1.0328,1.0399,1.0361,1.0365,1.0368,1.0369,1.0504,1.0505,0,0,0,0,0,0,1.0012,1.003,1.0148,1.0154,1.0083,1.0153,1.0165,1.0191,1.0254,1.0263,1.0223,1.0223,1.0313,1.0323,1.0332,1.0384,1.0366,1.037,1.0372,1.0503,1.0504,1.0505,0,0,0,0,0,0,1.0009,1.0022,1.0144,1.0093,1.0109,1.0156,1.0186,1.0194,1.0215,1.0265,1.0273,1.0235,1.0313,1.0325,1.0374,1.0388,1.0372,1.0376,1.0502,1.0504,1.0505,1.0489,0,0,0,0,0,0,1.0004,1.0021,1.0038,1.0093,1.0111,1.0185,1.0187,1.0196,1.0223,1.0224,1.0279,1.0287,1.0314,1.0367,1.0378,1.0394,1.038,1.0501,1.0503,1.0504,1.0489,1.049,1.0491,0,0,0,0,0,0.9998,1.003,1.0038,1.0053,1.0133,1.0185,1.0196,1.0226,1.0224,1.0241,1.0272,1.0285,1.0384,1.0371,1.0385,1.0402,1.05,1.0502,1.0504,1.0488,1.0489,1.0491,0,0,0,0,0,0,0.9975,1.0037,1.0048,1.0098,1.0136,1.0191,1.0213,1.0227,1.0266,1.0266,1.0302,1.0314,1.0359,1.0386,1.037,1.0445,1.0443,1.0448,1.0426,1.0428,1.0429,1.0421,1.0383,0,0,0,0,0,0.9976,1.0014,1.0066,1.0105,1.0124,1.0165,1.0189,1.0209,1.025,1.0266,1.0301,1.034,1.038,1.0406,1.0445,1.0493,1.0504,1.0511,1.0512,1.0512,1.0516,1.0542,1.0545,1.0511,1.0511,1.0511,0,0,0.9978,1.0017,1.0038,1.0102,1.0133,1.0171,1.0178,1.0218,1.0246,1.0272,1.032,1.0347,1.0393,1.044,1.0463,1.0464,1.0528,1.0515,1.0515,1.0518,1.0544,1.0547,1.055,1.0513,1.0512,1.0512,0,0,1.0,1.0034,1.007,1.0102,1.015,1.0177,1.0185,1.0237,1.0256,1.0305,1.0325,1.0358,1.0427,1.0458,1.0483,1.0516,1.0529,1.0528,1.0533,1.0558,1.0561,1.0563,1.0574,1.0578,1.0532,1.0532,1.0532,0,0.9997,1.0055,1.0087,1.0125,1.0152,1.0177,1.0213,1.0242,1.03,1.0318,1.0318,1.0403,1.0436,1.0491,1.0499,1.0519,1.0529,1.0522,1.0558,1.0561,1.0564,1.0575,1.0579,1.0531,1.0531,1.0531,1.0531,0,1.0047,1.0087,1.011,1.0165,1.0195,1.0232,1.0269,1.0295,1.0312,1.0339,1.0387,1.0427,1.0475,1.049,1.0507,1.0547,1.0545,1.0551,1.055,1.0566,1.0577,1.0581,1.053,1.0531,1.0531,1.0531,0,0,1.0058,1.013,1.0138,1.0163,1.0218,1.0249,1.0286,1.0333,1.0354,1.0393,1.0425,1.0482,1.0487,1.0515,1.0537,1.0559,1.0581,1.0562,1.0563,1.0563,1.0626,1.0621,1.0626,1.059,1.0591,1.0592,1.0622,0,1.0086,1.0155,1.0185,1.024,1.0276,1.03,1.0333,1.037,1.0396,1.043,1.0459,1.0498,1.0503,1.052,1.0542,1.0573,1.0594,1.0572,1.062,1.0621,1.0607,1.0631,1.0626,1.0653,1.0627,1.0628,1.0628,0,1.0129,1.0169,1.0227,1.0276,1.0293,1.0322,1.0366,1.0399,1.0441,1.0458,1.0489,1.0509,1.0549,1.0545,1.06,1.0584,1.0605,1.0624,1.0625,1.063,1.0625,1.0636,1.0662,1.0666,1.0635,1.0635,1.0634,0,1.013,1.0197,1.0241,1.0262,1.0321,1.034,1.0366,1.0407,1.0432,1.0471,1.0488,1.0531,1.0554,1.0587,1.0618,1.0612,1.0669,1.0668,1.0684,1.0683,1.0695,1.0693,1.0723,1.071,1.071,1.071,1.071,0,1.0158,1.0193,1.0242,1.0268,1.0308,1.0341,1.0379,1.0406,1.0442,1.0474,1.0498,1.0527,1.0566,1.06,1.0625,1.0666,1.0676,1.0691,1.0697,1.0689,1.0686,1.0702,1.0701,1.0711,1.071,1.071,1.071,0,1.0165,1.02,1.0248,1.03,1.0314,1.034,1.0384,1.0411,1.0437,1.0477,1.0489,1.0531,1.0572,1.0606,1.0661,1.0677,1.072,1.0727,1.0705,1.0708,1.0722,1.072,1.0763,1.077,1.0752,1.0752,1.0752,0,1.0181,1.0208,1.0262,1.0285,1.031,1.0347,1.0374,1.0407,1.0434,1.0483,1.0503,1.0546,1.0582,1.0647,1.0682,1.0724,1.0732,1.0744,1.0738,1.0728,1.0731,1.0729,1.0731,1.0744,1.0744,1.0744,1.0744,0,1.0204,1.022,1.0257,1.03,1.033,1.0365,1.0401,1.0419,1.0459,1.0487,1.053,1.0557,1.0613,1.0655,1.07,1.0726,1.0741,1.0746,1.0752,1.0743,1.0729,1.0736,1.0706,1.0745,1.0745,1.0745,1.0745,1.0744,1.0216,1.024,1.0282,1.0322,1.0353,1.0386,1.0413,1.0443,1.0479,1.0526,1.0544,1.0587,1.0628,1.069,1.0716,1.075,1.0752,1.076,1.0762,1.0764,1.0762,1.0724,1.0758,1.0758,1.0759,1.0759,1.0759,0,1.0239,1.0267,1.0304,1.0353,1.0385,1.0397,1.0437,1.0462,1.05,1.0536,1.0571,1.062,1.0661,1.0699,1.0742,1.0761,1.077,1.0771,1.077,1.0775,1.0758,1.0749,1.0764,1.0764,1.0764,1.0764,1.0764,1.0764,1.0255,1.0298,1.0318,1.0375,1.0403,1.0446,1.0467,1.0497,1.0527,1.0579,1.0613,1.0638,1.0675,1.0721,1.0758,1.0769,1.0783,1.0783,1.0794,1.0778,1.0777,1.0776,1.0767,1.0786,1.0786,1.0809,1.0809,1.0809]},{"header":{"parameterUnit":"m.s-1","parameterCategory":1,"la1":30.2991,"la2":30.254,"lo1":-89.0895,"lo2":-89.0444,"dy":0.0017,"dx":0.0017,"nx":28,"ny":28,"refTime":"2024-04-24T21:00:00:Z","depth":0,"parameterNumber":3,"parameterNumberName":"V-component_of_WINDS"},"data":[0,0,0,0,0,0,0,0,0,0,0,0,0,0,0,0,0,0,0,0,0,0,0,0,0,0,0,0,0,0,0,0,0,0,0,0,0,0,0,0,0,0,0,0,0,0,0,0,0,0,0,0,0,0,0,0,0,0,4.2365,4.2365,0,4.2362,4.2362,4.2362,4.2286,4.2284,4.2282,4.2281,4.2277,4.2278,4.228,0,0,0,0,0,0,0,0,0,0,0,0,0,4.2307,4.2308,4.2365,4.2365,4.2365,4.2362,4.2362,4.2362,4.2287,4.2284,4.2282,4.228,4.2276,4.2278,4.228,0,0,0,0,0,0,0,0,0,0,0,0,0,4.2321,4.2309,4.2365,4.2327,4.2324,4.2362,4.2362,4.2362,4.2287,4.2284,4.2281,4.2279,4.2275,4.2278,4.228,4.2354,0,0,4.2288,4.2289,0,0,0,0,0,0,0,0,4.232,4.2323,4.2333,4.233,4.2326,4.2321,4.2339,4.2359,4.2288,4.2301,4.2281,4.2277,4.2294,4.2295,4.23,4.2354,4.2354,4.2288,4.229,4.2291,4.2292,0,0,0,0,0,0,0,4.2319,4.2323,4.2364,4.2333,4.2329,4.231,4.2309,4.2343,4.2314,4.23,4.2294,4.2295,4.2292,4.2298,4.23,4.2354,4.2288,4.2291,4.2292,4.2293,4.2466,4.2468,0,0,0,0,0,0,4.2323,4.2322,4.2364,4.2364,4.2316,4.2314,4.2312,4.2326,4.2313,4.2309,4.2297,4.2291,4.2295,4.2297,4.2299,4.2383,4.2291,4.2293,4.2295,4.2463,4.2466,4.247,0,0,0,0,0,0,4.2322,4.2328,4.2364,4.2342,4.2345,4.2318,4.2334,4.2327,4.2334,4.2311,4.2306,4.2309,4.2293,4.2296,4.2341,4.2382,4.2295,4.2297,4.2459,4.2464,4.2468,4.2552,0,0,0,0,0,0,4.2321,4.2328,4.2356,4.2343,4.2346,4.2406,4.2336,4.2329,4.2338,4.2331,4.2321,4.2317,4.2291,4.2337,4.2343,4.2384,4.2299,4.2455,4.2461,4.2466,4.2546,4.2559,4.2571,0,0,0,0,0,4.2319,4.238,4.2358,4.2363,4.2381,4.2409,4.241,4.2379,4.2342,4.237,4.2355,4.2317,4.2377,4.2342,4.2349,4.2391,4.2452,4.2459,4.2466,4.254,4.2557,4.2571,0,0,0,0,0,0,4.2399,4.2378,4.2353,4.2411,4.2412,4.2396,4.243,4.2398,4.241,4.2402,4.2363,4.2361,4.2412,4.2406,4.2368,4.246,4.2408,4.2416,4.2462,4.2478,4.249,4.249,4.2301,0,0,0,0,0,4.2424,4.2449,4.2428,4.2482,4.2484,4.2457,4.2468,4.2444,4.2443,4.2443,4.2432,4.2433,4.2451,4.2464,4.248,4.2545,4.2541,4.2577,4.259,4.26,4.2607,4.2639,4.2655,4.2492,4.2492,4.2492,0,0,4.2475,4.2466,4.2484,4.2498,4.2496,4.2521,4.2458,4.2488,4.2506,4.2448,4.2489,4.2481,4.2479,4.2534,4.2557,4.253,4.2651,4.2609,4.2617,4.2619,4.2648,4.2663,4.2677,4.2497,4.2496,4.2495,0,0,4.258,4.2577,4.262,4.2619,4.2617,4.2598,4.2609,4.2597,4.2589,4.263,4.2586,4.2607,4.2641,4.2641,4.2645,4.275,4.2715,4.2756,4.2821,4.2853,4.2866,4.2877,4.2913,4.2926,4.2764,4.2764,4.2764,0,4.2644,4.2681,4.2647,4.2679,4.2686,4.2634,4.2677,4.2678,4.2681,4.2687,4.2657,4.2696,4.2692,4.2745,4.277,4.2776,4.2786,4.2756,4.2867,4.2878,4.2887,4.2921,4.2935,4.2769,4.2768,4.2768,4.2768,0,4.2758,4.2784,4.282,4.2823,4.2834,4.2872,4.2843,4.2858,4.2833,4.2818,4.2859,4.2852,4.2865,4.2876,4.2852,4.2926,4.2909,4.2874,4.282,4.2908,4.2939,4.2952,4.2776,4.2774,4.2773,4.2772,0,0,4.2913,4.2897,4.291,4.291,4.2903,4.2923,4.2958,4.297,4.2983,4.2988,4.3015,4.3045,4.3011,4.3017,4.2992,4.3021,4.3102,4.2981,4.2981,4.3003,4.318,4.3206,4.3221,4.3079,4.3082,4.3084,4.318,0,4.3013,4.3072,4.3042,4.3104,4.3127,4.3078,4.3108,4.3107,4.3094,4.3111,4.3097,4.3117,4.3073,4.3076,4.3101,4.3087,4.3137,4.3079,4.3104,4.3105,4.3104,4.3238,4.3265,4.3356,4.3192,4.3194,4.3196,0,4.3138,4.3146,4.3211,4.3198,4.3206,4.3234,4.3242,4.326,4.3258,4.3246,4.3252,4.322,4.3253,4.3201,4.3246,4.3207,4.3216,4.321,4.3213,4.3213,4.3155,4.324,4.3385,4.3398,4.3215,4.3213,4.3212,0,4.3242,4.327,4.3311,4.3313,4.33,4.3321,4.3316,4.3311,4.332,4.3327,4.3332,4.3344,4.335,4.3359,4.3332,4.3297,4.338,4.3326,4.337,4.3371,4.3388,4.3387,4.3535,4.3397,4.3397,4.3397,4.3396,0,4.3356,4.3397,4.3358,4.3383,4.3427,4.3393,4.3437,4.3427,4.3423,4.3445,4.3404,4.3426,4.3389,4.3408,4.3387,4.3426,4.3429,4.342,4.3414,4.3423,4.3424,4.3426,4.3419,4.34,4.3399,4.3399,4.3398,0,4.348,4.3455,4.3497,4.3481,4.3478,4.3511,4.3497,4.3519,4.3503,4.3532,4.3537,4.3511,4.3531,4.3504,4.3522,4.3507,4.356,4.3545,4.3561,4.3556,4.3601,4.3597,4.3755,4.3773,4.3625,4.3626,4.3627,0,4.3553,4.3583,4.357,4.3582,4.358,4.36,4.3608,4.3575,4.3586,4.3584,4.3607,4.3623,4.3633,4.3666,4.3649,4.3662,4.3646,4.37,4.3647,4.3655,4.3644,4.3642,4.3644,4.371,4.3712,4.3714,4.3715,0,4.3686,4.3672,4.3686,4.3695,4.3706,4.3712,4.3715,4.3728,4.3693,4.3707,4.3725,4.3734,4.375,4.3766,4.3774,4.3769,4.3736,4.3732,4.3742,4.3751,4.3758,4.3754,4.3589,4.3728,4.3727,4.3726,4.3725,4.3725,4.3785,4.3809,4.3803,4.3819,4.3818,4.3822,4.3841,4.3828,4.3842,4.3853,4.3833,4.3856,4.3852,4.3859,4.3858,4.3876,4.3852,4.3868,4.3872,4.3876,4.3882,4.3757,4.3878,4.3877,4.3877,4.3876,4.3876,0,4.3914,4.3908,4.3923,4.3928,4.3941,4.3909,4.391,4.3923,4.3944,4.3943,4.3954,4.3975,4.399,4.3974,4.3986,4.4003,4.3988,4.4007,4.4005,4.4004,4.3903,4.3892,4.4019,4.4019,4.4019,4.4019,4.4019,4.4019,4.3982,4.402,4.4006,4.4042,4.4036,4.4058,4.4061,4.4064,4.4063,4.4088,4.41,4.4089,4.4082,4.4093,4.4105,4.41,4.4105,4.4129,4.4119,4.4025,4.4011,4.3998,4.3987,4.4131,4.4131,4.4218,4.4218,4.4219]}]]